{"data":{"norad_id":64460,"epoch":"2026-09-20T22:45:31.759200Z","epoch_age_seconds":92839,"freshness":"FRESH","line1":"1 64460U 25130Y   26263.94828425  .00012245  00000+0  37297-3 0  9996","line2":"2 64460  53.1577 259.7651 0002131  38.0264 322.0889 15.34396999 70620","mean_motion":15.34396999,"eccentricity":0.0002131,"inclination_deg":53.1577,"raan_deg":259.7651,"arg_perigee_deg":38.0264,"mean_anomaly_deg":322.0889,"bstar":0.00037297,"rev_number":7062,"period_min":93.847941630392,"perigee_km":461.25437487012,"apogee_km":464.16994478203,"semimajor_km":6840.8491598261,"source":"CELESTRAK","updated_at":"2026-09-21T09:00:35.356639Z"}}